EZY16YV EGAC-EGCC

Flight info

Callsign EZY16YV
Flight time 0h 36m
Altitude 23000
Route DUFFY L15 PEPOD Q38 MAKUX
Aircraft A320/M-SDE2E3FGHIJ1RWXYZ/LB1

Departure

Time 2026-04-26 18:46
Airport George Best Belfast City Airport (EGAC)

Arrival

Time 2026-04-26 19:23
Airport Manchester Airport (EGCC)
Time Latitude Longitude Altitude Speed Heading
2026-04-26 18:30 54.61440 -5.87236 24 ft 0 kts 124°
2026-04-26 18:41 54.61452 -5.87261 23 ft 4 kts 143°
2026-04-26 18:41 54.61474 -5.87277 23 ft 4 kts 187°
2026-04-26 18:41 54.61498 -5.87263 24 ft 2 kts 214°
2026-04-26 18:42 54.61499 -5.87261 24 ft 0 kts 214°
2026-04-26 18:43 54.61475 -5.87290 23 ft 7 kts 214°
2026-04-26 18:44 54.61419 -5.87358 23 ft 13 kts 221°
2026-04-26 18:44 54.61348 -5.87487 23 ft 18 kts 212°
2026-04-26 18:44 54.61244 -5.87615 23 ft 18 kts 216°
2026-04-26 18:44 54.61146 -5.87729 23 ft 16 kts 214°
2026-04-26 18:45 54.61084 -5.87864 23 ft 14 kts 266°
2026-04-26 18:45 54.61128 -5.88003 22 ft 12 kts 321°
2026-04-26 18:45 54.61249 -5.87923 22 ft 44 kts 36°
2026-04-26 18:45 54.61709 -5.87369 27 ft 113 kts 35°
2026-04-26 18:46 54.62464 -5.86444 326 ft 138 kts 36°
2026-04-26 18:46 54.63236 -5.85474 1065 ft 140 kts 41°
2026-04-26 18:46 54.63679 -5.83863 1469 ft 167 kts 85°
2026-04-26 18:46 54.63460 -5.81752 1769 ft 193 kts 110°
2026-04-26 18:47 54.62566 -5.79846 2120 ft 222 kts 150°
2026-04-26 18:47 54.61047 -5.78866 2554 ft 246 kts 162°
2026-04-26 18:47 54.59939 -5.78204 2919 ft 259 kts 161°
2026-04-26 18:47 54.58226 -5.77094 3760 ft 267 kts 160°
2026-04-26 18:48 54.56478 -5.75926 4706 ft 271 kts 160°
2026-04-26 18:48 54.54136 -5.74361 5978 ft 274 kts 161°
2026-04-26 18:48 54.52349 -5.73179 6908 ft 276 kts 161°
2026-04-26 18:48 54.51125 -5.72376 7487 ft 279 kts 161°
2026-04-26 18:49 54.49290 -5.71180 8318 ft 284 kts 161°
2026-04-26 18:49 54.47443 -5.69985 9137 ft 290 kts 161°
2026-04-26 18:49 54.45533 -5.68753 9967 ft 295 kts 161°
2026-04-26 18:49 54.43578 -5.67496 10564 ft 308 kts 161°
2026-04-26 18:50 54.41493 -5.66156 10852 ft 331 kts 161°
2026-04-26 18:50 54.39301 -5.64744 11450 ft 340 kts 161°
2026-04-26 18:50 54.37076 -5.63310 12207 ft 344 kts 161°
2026-04-26 18:50 54.34824 -5.61860 12990 ft 346 kts 161°
2026-04-26 18:51 54.32551 -5.60398 13757 ft 350 kts 161°
2026-04-26 18:51 54.30262 -5.58920 14431 ft 354 kts 159°
2026-04-26 18:51 54.28087 -5.56959 15047 ft 360 kts 147°
2026-04-26 18:51 54.26122 -5.54175 15678 ft 366 kts 135°
2026-04-26 18:52 54.24517 -5.50767 16305 ft 370 kts 126°
2026-04-26 18:52 54.23010 -5.47175 16930 ft 374 kts 126°
2026-04-26 18:52 54.21499 -5.43592 17539 ft 378 kts 127°
2026-04-26 18:52 54.19952 -5.39928 18155 ft 382 kts 127°
2026-04-26 18:53 54.18382 -5.36218 18735 ft 386 kts 127°
2026-04-26 18:53 54.16800 -5.32489 19278 ft 389 kts 127°
2026-04-26 18:53 54.15202 -5.28725 19832 ft 392 kts 127°
2026-04-26 18:53 54.13597 -5.24952 20404 ft 394 kts 127°
2026-04-26 18:54 54.11981 -5.21167 20946 ft 396 kts 126°
2026-04-26 18:54 54.10706 -5.18188 21364 ft 399 kts 126°
2026-04-26 18:54 54.09924 -5.16362 21621 ft 400 kts 126°
2026-04-26 18:54 54.08279 -5.12519 22120 ft 403 kts 126°
2026-04-26 18:55 54.06624 -5.08652 22622 ft 406 kts 126°
2026-04-26 18:55 54.04953 -5.04750 23099 ft 409 kts 126°
2026-04-26 18:55 54.03276 -5.00835 23251 ft 408 kts 126°
2026-04-26 18:55 54.01634 -4.97008 23271 ft 393 kts 127°
2026-04-26 18:56 54.00027 -4.93283 23275 ft 389 kts 127°
2026-04-26 18:56 53.98422 -4.89574 23275 ft 388 kts 127°
2026-04-26 18:56 53.96821 -4.85886 23275 ft 388 kts 127°
2026-04-26 18:56 53.95217 -4.82191 23272 ft 388 kts 127°
2026-04-26 18:57 53.93617 -4.78504 23279 ft 388 kts 127°
2026-04-26 18:57 53.92560 -4.76072 23275 ft 388 kts 127°
2026-04-26 18:57 53.90436 -4.71194 23279 ft 388 kts 127°
2026-04-26 18:57 53.88838 -4.67525 23283 ft 385 kts 127°
2026-04-26 18:58 53.88413 -4.66550 23281 ft 384 kts 127°
2026-04-26 18:58 53.86827 -4.62913 23283 ft 383 kts 127°
2026-04-26 18:58 53.85243 -4.59281 23284 ft 383 kts 127°
2026-04-26 18:58 53.83659 -4.55658 23284 ft 382 kts 127°
2026-04-26 18:59 53.82074 -4.52043 23283 ft 382 kts 128°
2026-04-26 18:59 53.80487 -4.48432 23282 ft 382 kts 128°
2026-04-26 18:59 53.78901 -4.44822 23281 ft 382 kts 127°
2026-04-26 18:59 53.77337 -4.41262 23275 ft 382 kts 128°
2026-04-26 19:00 53.75750 -4.37657 23282 ft 382 kts 128°
2026-04-26 19:00 53.74162 -4.34054 23282 ft 382 kts 128°
2026-04-26 19:00 53.72570 -4.30455 23281 ft 382 kts 128°
2026-04-26 19:00 53.70975 -4.26861 23281 ft 382 kts 128°
2026-04-26 19:01 53.69383 -4.23274 23279 ft 382 kts 128°
2026-04-26 19:01 53.67787 -4.19684 23280 ft 382 kts 128°
2026-04-26 19:01 53.66163 -4.16037 22888 ft 393 kts 128°
2026-04-26 19:01 53.64530 -4.12373 22509 ft 386 kts 129°
2026-04-26 19:02 53.63117 -4.08631 22112 ft 382 kts 117°
2026-04-26 19:02 53.62077 -4.04520 21639 ft 380 kts 113°
2026-04-26 19:02 53.61074 -4.00410 21181 ft 377 kts 113°
2026-04-26 19:02 53.60411 -3.97710 20865 ft 374 kts 113°
2026-04-26 19:03 53.59089 -3.92355 19934 ft 366 kts 112°
2026-04-26 19:03 53.58126 -3.88477 19493 ft 354 kts 112°
2026-04-26 19:03 53.57191 -3.84714 19082 ft 342 kts 111°
2026-04-26 19:03 53.56287 -3.81088 18676 ft 331 kts 111°
2026-04-26 19:04 53.55406 -3.77567 18253 ft 322 kts 111°
2026-04-26 19:04 53.54552 -3.74158 17863 ft 312 kts 111°
2026-04-26 19:04 53.53718 -3.70833 17411 ft 308 kts 111°
2026-04-26 19:04 53.52865 -3.67427 16641 ft 322 kts 111°
2026-04-26 19:05 53.51123 -3.60467 15865 ft 322 kts 112°
2026-04-26 19:05 53.50253 -3.57003 15540 ft 321 kts 112°
2026-04-26 19:05 53.49389 -3.53565 15211 ft 319 kts 112°
2026-04-26 19:06 53.48529 -3.50144 14902 ft 317 kts 112°
2026-04-26 19:06 53.47673 -3.46746 14580 ft 315 kts 113°
2026-04-26 19:06 53.46827 -3.43411 14274 ft 314 kts 113°
2026-04-26 19:06 53.45962 -3.40008 13934 ft 313 kts 113°
2026-04-26 19:07 53.45114 -3.36671 13598 ft 310 kts 113°
2026-04-26 19:07 53.44270 -3.33354 13265 ft 308 kts 113°
2026-04-26 19:07 53.43441 -3.30094 12912 ft 306 kts 114°
2026-04-26 19:07 53.42605 -3.26818 12556 ft 305 kts 114°
2026-04-26 19:08 53.41772 -3.23557 12212 ft 303 kts 114°
2026-04-26 19:08 53.40942 -3.20309 11870 ft 302 kts 114°
2026-04-26 19:08 53.40238 -3.17011 11527 ft 301 kts 103°
2026-04-26 19:08 53.40073 -3.13553 11200 ft 300 kts 86°
2026-04-26 19:09 53.40488 -3.10155 10866 ft 298 kts 70°
2026-04-26 19:09 53.41414 -3.07053 10498 ft 297 kts 59°
2026-04-26 19:09 53.42461 -3.04065 10123 ft 297 kts 59°
2026-04-26 19:09 53.43503 -3.01078 9727 ft 297 kts 60°
2026-04-26 19:10 53.44541 -2.98097 9378 ft 294 kts 60°
2026-04-26 19:10 53.45569 -2.95129 8993 ft 293 kts 60°
2026-04-26 19:10 53.46588 -2.92172 8609 ft 292 kts 60°
2026-04-26 19:10 53.47581 -2.89282 8259 ft 289 kts 60°
2026-04-26 19:11 53.48586 -2.86362 7861 ft 288 kts 60°
2026-04-26 19:11 53.49586 -2.83455 7492 ft 286 kts 60°
2026-04-26 19:11 53.50577 -2.80569 7132 ft 284 kts 60°
2026-04-26 19:11 53.51560 -2.77701 6823 ft 280 kts 60°
2026-04-26 19:12 53.52513 -2.74921 6698 ft 269 kts 60°
2026-04-26 19:12 53.53307 -2.72143 6469 ft 261 kts 73°
2026-04-26 19:12 53.53608 -2.69170 6109 ft 257 kts 91°
2026-04-26 19:12 53.53457 -2.66197 5744 ft 254 kts 99°
2026-04-26 19:13 53.53243 -2.63261 5412 ft 252 kts 98°
2026-04-26 19:13 53.53036 -2.60348 5075 ft 250 kts 98°
2026-04-26 19:13 53.52833 -2.57456 4701 ft 249 kts 98°
2026-04-26 19:13 53.52631 -2.54566 4329 ft 248 kts 97°
2026-04-26 19:14 53.52428 -2.51690 3988 ft 247 kts 98°
2026-04-26 19:14 53.52226 -2.48834 3636 ft 246 kts 98°
2026-04-26 19:14 53.52029 -2.46059 3510 ft 244 kts 98°
2026-04-26 19:14 53.51890 -2.44117 3511 ft 246 kts 98°
2026-04-26 19:15 53.51615 -2.40294 3507 ft 246 kts 98°
2026-04-26 19:15 53.51411 -2.37467 3510 ft 247 kts 98°
2026-04-26 19:15 53.51204 -2.34608 3512 ft 246 kts 98°
2026-04-26 19:15 53.50994 -2.31758 3511 ft 246 kts 98°
2026-04-26 19:16 53.50785 -2.28926 3514 ft 239 kts 98°
2026-04-26 19:16 53.50586 -2.26238 3510 ft 224 kts 98°
2026-04-26 19:16 53.50399 -2.23694 3509 ft 217 kts 98°
2026-04-26 19:16 53.50215 -2.21186 3509 ft 216 kts 98°
2026-04-26 19:17 53.50030 -2.18702 3507 ft 212 kts 98°
2026-04-26 19:17 53.49847 -2.16273 3508 ft 207 kts 98°
2026-04-26 19:17 53.49669 -2.13879 3510 ft 206 kts 98°
2026-04-26 19:17 53.49496 -2.11556 3531 ft 198 kts 98°
2026-04-26 19:18 53.49300 -2.09289 3515 ft 195 kts 107°
2026-04-26 19:18 53.48642 -2.07350 3408 ft 192 kts 137°
2026-04-26 19:18 53.47541 -2.06270 3305 ft 180 kts 167°
2026-04-26 19:18 53.46322 -2.06208 3220 ft 174 kts 195°
2026-04-26 19:19 53.45256 -2.07068 3088 ft 170 kts 220°
2026-04-26 19:19 53.44477 -2.08553 2889 ft 169 kts 231°
2026-04-26 19:19 53.43767 -2.10041 2693 ft 154 kts 231°
2026-04-26 19:19 53.43118 -2.11399 2471 ft 145 kts 231°
2026-04-26 19:20 53.42496 -2.12696 2283 ft 141 kts 231°
2026-04-26 19:20 53.42092 -2.13537 2161 ft 140 kts 231°
2026-04-26 19:20 53.41280 -2.15229 1904 ft 139 kts 231°
2026-04-26 19:20 53.40675 -2.16487 1718 ft 138 kts 230°
2026-04-26 19:21 53.40070 -2.17745 1535 ft 139 kts 230°
2026-04-26 19:21 53.39467 -2.19002 1347 ft 139 kts 231°
2026-04-26 19:21 53.38863 -2.20266 1156 ft 139 kts 231°
2026-04-26 19:21 53.38253 -2.21531 971 ft 140 kts 231°
2026-04-26 19:22 53.37647 -2.22795 779 ft 140 kts 231°
2026-04-26 19:22 53.37048 -2.24042 622 ft 139 kts 230°
2026-04-26 19:22 53.36439 -2.25300 406 ft 139 kts 230°
2026-04-26 19:22 53.35837 -2.26540 273 ft 130 kts 230°
2026-04-26 19:23 53.35432 -2.27378 246 ft 49 kts 231°
2026-04-26 19:23 53.35280 -2.27752 238 ft 39 kts 250°
2026-04-26 19:23 53.35232 -2.28145 231 ft 23 kts 262°
2026-04-26 19:23 53.35275 -2.28220 232 ft 4 kts 30°
2026-04-26 19:24 53.35293 -2.28190 234 ft 4 kts 44°
2026-04-26 19:24 53.35318 -2.28148 237 ft 7 kts 45°
2026-04-26 19:24 53.35501 -2.27915 239 ft 21 kts
2026-04-26 19:25 53.35650 -2.27892 242 ft 20 kts
2026-04-26 19:25 53.35693 -2.27884 244 ft 17 kts
2026-04-26 19:25 53.35753 -2.27873 247 ft 0 kts